[[{"header":{"parameterUnit":"m.s-1","parameterCategory":1,"la1":30.2991,"la2":30.254,"lo1":-89.0895,"lo2":-89.0444,"dy":0.0017,"dx":0.0017,"nx":28,"ny":28,"refTime":"2024-03-11T09:00:00:Z","depth":0,"parameterNumber":2,"parameterNumberName":"U-component_of_WINDS"},"data":[0,0,0,0,0,0,0,0,0,0,0,0,0,0,0,0,0,0,0,0,0,0,0,0,0,0,0,0,0,0,0,0,0,0,0,0,0,0,0,0,0,0,0,0,0,0,0,0,0,0,0,0,0,0,0,0,0,0,-1.3474,-1.3474,0,-1.3504,-1.3504,-1.3504,-1.3491,-1.349,-1.349,-1.3489,-1.3519,-1.352,-1.3522,0,0,0,0,0,0,0,0,0,0,0,0,0,-1.3403,-1.3405,-1.3474,-1.3474,-1.3474,-1.3504,-1.3504,-1.3505,-1.3491,-1.349,-1.349,-1.3489,-1.3518,-1.352,-1.3522,0,0,0,0,0,0,0,0,0,0,0,0,0,-1.3434,-1.3405,-1.3473,-1.3471,-1.3471,-1.3504,-1.3504,-1.3505,-1.3492,-1.349,-1.3489,-1.3488,-1.3518,-1.352,-1.3522,-1.3558,0,0,-1.3529,-1.353,0,0,0,0,0,0,0,0,-1.3432,-1.3436,-1.3471,-1.3472,-1.3472,-1.3493,-1.349,-1.3522,-1.3492,-1.3484,-1.3489,-1.3488,-1.3511,-1.3513,-1.3522,-1.3559,-1.356,-1.3529,-1.353,-1.3531,-1.3532,0,0,0,0,0,0,0,-1.343,-1.3435,-1.3485,-1.3472,-1.3472,-1.3468,-1.3472,-1.3496,-1.3503,-1.3484,-1.3484,-1.3487,-1.3511,-1.3519,-1.3522,-1.3561,-1.3529,-1.3531,-1.3532,-1.3533,-1.3628,-1.363,0,0,0,0,0,0,-1.3428,-1.3433,-1.3484,-1.3486,-1.3449,-1.3471,-1.3474,-1.3487,-1.3503,-1.3504,-1.3488,-1.3487,-1.3516,-1.352,-1.3523,-1.3565,-1.3531,-1.3533,-1.3534,-1.3627,-1.3629,-1.363,0,0,0,0,0,0,-1.3427,-1.3433,-1.3483,-1.346,-1.3466,-1.3473,-1.3488,-1.3488,-1.3497,-1.3506,-1.3507,-1.3496,-1.3515,-1.352,-1.3549,-1.3566,-1.3534,-1.3536,-1.3626,-1.3628,-1.3629,-1.3651,0,0,0,0,0,0,-1.3425,-1.3432,-1.3446,-1.346,-1.3467,-1.3509,-1.3489,-1.349,-1.3501,-1.3499,-1.3513,-1.3515,-1.3515,-1.3546,-1.3551,-1.3569,-1.3538,-1.3624,-1.3627,-1.3629,-1.3648,-1.3653,-1.3657,0,0,0,0,0,-1.3422,-1.3451,-1.3447,-1.3453,-1.3485,-1.351,-1.3514,-1.3514,-1.3502,-1.3516,-1.3522,-1.3514,-1.3564,-1.3549,-1.3555,-1.3573,-1.3623,-1.3626,-1.3629,-1.3647,-1.3652,-1.3657,0,0,0,0,0,0,-1.3438,-1.3452,-1.3448,-1.3482,-1.3495,-1.3508,-1.3525,-1.352,-1.3537,-1.3534,-1.3533,-1.3537,-1.3567,-1.3573,-1.3556,-1.3608,-1.3592,-1.3596,-1.3603,-1.3608,-1.3613,-1.361,-1.354,0,0,0,0,0,-1.3446,-1.3466,-1.3477,-1.3506,-1.3513,-1.3518,-1.3529,-1.3528,-1.3541,-1.3546,-1.3554,-1.3567,-1.3585,-1.3597,-1.3615,-1.365,-1.3652,-1.3665,-1.3669,-1.3673,-1.3676,-1.3694,-1.37,-1.3639,-1.3639,-1.3639,0,0,-1.3461,-1.3472,-1.3484,-1.3509,-1.3519,-1.3539,-1.3523,-1.3545,-1.3559,-1.355,-1.3578,-1.3584,-1.3598,-1.363,-1.3644,-1.3636,-1.3694,-1.3676,-1.3679,-1.368,-1.3698,-1.3704,-1.3709,-1.3641,-1.364,-1.364,0,0,-1.35,-1.351,-1.3535,-1.3545,-1.3561,-1.3564,-1.357,-1.3584,-1.3588,-1.3616,-1.3609,-1.3626,-1.3658,-1.3668,-1.3678,-1.3721,-1.3714,-1.3727,-1.3748,-1.3766,-1.3771,-1.3775,-1.379,-1.3795,-1.373,-1.373,-1.373,0,-1.3517,-1.3548,-1.3548,-1.3571,-1.3582,-1.3575,-1.36,-1.361,-1.363,-1.3638,-1.3628,-1.3668,-1.3677,-1.3711,-1.3722,-1.373,-1.3736,-1.3724,-1.377,-1.3775,-1.3778,-1.3792,-1.3798,-1.3731,-1.3731,-1.3731,-1.3731,0,-1.3568,-1.3589,-1.3608,-1.3628,-1.3641,-1.3665,-1.3668,-1.3682,-1.368,-1.3684,-1.3713,-1.3724,-1.3743,-1.3751,-1.3749,-1.3785,-1.3779,-1.377,-1.3753,-1.3786,-1.3799,-1.3804,-1.3733,-1.3733,-1.3732,-1.3732,0,0,-1.3617,-1.3637,-1.3644,-1.3653,-1.3669,-1.3685,-1.3709,-1.3728,-1.3739,-1.3754,-1.3773,-1.38,-1.3792,-1.3803,-1.3802,-1.3818,-1.3851,-1.3807,-1.3807,-1.3814,-1.389,-1.3896,-1.3902,-1.3847,-1.3848,-1.3848,-1.3888,0,-1.3656,-1.3697,-1.3699,-1.3736,-1.3756,-1.3749,-1.377,-1.3782,-1.3787,-1.3803,-1.3809,-1.3828,-1.3816,-1.3822,-1.3838,-1.3843,-1.3866,-1.3841,-1.3864,-1.3864,-1.3859,-1.3909,-1.3915,-1.3952,-1.3893,-1.3894,-1.3895,0,-1.3707,-1.3723,-1.3763,-1.3777,-1.3785,-1.3803,-1.3821,-1.3837,-1.3851,-1.3853,-1.3865,-1.3863,-1.3886,-1.3869,-1.3901,-1.3884,-1.3893,-1.3898,-1.3899,-1.39,-1.3881,-1.3911,-1.3964,-1.3969,-1.3903,-1.3902,-1.3902,0,-1.3738,-1.3769,-1.3797,-1.3805,-1.3822,-1.3835,-1.3842,-1.3855,-1.3867,-1.3882,-1.389,-1.3908,-1.3917,-1.3931,-1.3933,-1.392,-1.3965,-1.3948,-1.3967,-1.3967,-1.3976,-1.3975,-1.403,-1.3983,-1.3983,-1.3983,-1.3983,0,-1.3781,-1.3805,-1.3811,-1.3828,-1.3855,-1.3856,-1.3883,-1.3889,-1.3901,-1.3918,-1.3914,-1.3931,-1.3933,-1.395,-1.3952,-1.3978,-1.3982,-1.3984,-1.3984,-1.3984,-1.3984,-1.399,-1.3987,-1.3985,-1.3984,-1.3984,-1.3984,0,-1.3819,-1.3824,-1.3854,-1.3868,-1.3872,-1.3891,-1.3902,-1.3919,-1.3923,-1.3946,-1.3951,-1.3958,-1.3978,-1.3982,-1.4005,-1.4006,-1.4037,-1.4035,-1.4032,-1.4032,-1.405,-1.4048,-1.4111,-1.4118,-1.4067,-1.4068,-1.4068,0,-1.3846,-1.3864,-1.388,-1.3892,-1.39,-1.392,-1.3931,-1.3934,-1.3946,-1.3963,-1.3977,-1.3997,-1.4012,-1.4045,-1.4051,-1.4069,-1.4067,-1.4088,-1.4069,-1.4069,-1.4066,-1.4065,-1.4066,-1.4091,-1.4091,-1.4092,-1.4092,0,-1.3892,-1.3894,-1.3912,-1.393,-1.3945,-1.3959,-1.3973,-1.3983,-1.3987,-1.4001,-1.4022,-1.4034,-1.4058,-1.4077,-1.4095,-1.4102,-1.4098,-1.4098,-1.4103,-1.4103,-1.41,-1.4101,-1.4041,-1.4096,-1.4096,-1.4096,-1.4095,-1.4095,-1.3925,-1.3941,-1.3955,-1.3975,-1.3986,-1.3999,-1.4014,-1.4021,-1.4038,-1.4058,-1.4059,-1.4081,-1.4094,-1.4118,-1.4126,-1.4143,-1.4137,-1.4144,-1.4146,-1.4148,-1.4149,-1.4098,-1.4147,-1.4147,-1.4147,-1.4146,-1.4146,0,-1.3971,-1.398,-1.3998,-1.4017,-1.4033,-1.4028,-1.4043,-1.4056,-1.4076,-1.4089,-1.4105,-1.4128,-1.4147,-1.4155,-1.4174,-1.4186,-1.4184,-1.4191,-1.4189,-1.4191,-1.4154,-1.4148,-1.4192,-1.4192,-1.4192,-1.4192,-1.4192,-1.4192,-1.3997,-1.4023,-1.4027,-1.4059,-1.4067,-1.4089,-1.4098,-1.411,-1.412,-1.4147,-1.4163,-1.4169,-1.418,-1.4199,-1.4216,-1.4218,-1.4224,-1.4231,-1.4232,-1.4198,-1.4193,-1.4189,-1.4183,-1.4233,-1.4233,-1.4267,-1.4267,-1.4268]},{"header":{"parameterUnit":"m.s-1","parameterCategory":1,"la1":30.2991,"la2":30.254,"lo1":-89.0895,"lo2":-89.0444,"dy":0.0017,"dx":0.0017,"nx":28,"ny":28,"refTime":"2024-03-11T09:00:00:Z","depth":0,"parameterNumber":3,"parameterNumberName":"V-component_of_WINDS"},"data":[0,0,0,0,0,0,0,0,0,0,0,0,0,0,0,0,0,0,0,0,0,0,0,0,0,0,0,0,0,0,0,0,0,0,0,0,0,0,0,0,0,0,0,0,0,0,0,0,0,0,0,0,0,0,0,0,0,0,-1.421,-1.4211,0,-1.4314,-1.4316,-1.4317,-1.4385,-1.4386,-1.4386,-1.4386,-1.4491,-1.4493,-1.4496,0,0,0,0,0,0,0,0,0,0,0,0,0,-1.4066,-1.4069,-1.4209,-1.4211,-1.4212,-1.4314,-1.4316,-1.4317,-1.4385,-1.4386,-1.4386,-1.4387,-1.449,-1.4493,-1.4496,0,0,0,0,0,0,0,0,0,0,0,0,0,-1.4145,-1.4069,-1.4209,-1.4258,-1.4264,-1.4314,-1.4316,-1.4317,-1.4385,-1.4386,-1.4386,-1.4387,-1.4489,-1.4493,-1.4496,-1.4505,0,0,-1.4507,-1.4509,0,0,0,0,0,0,0,0,-1.4141,-1.4151,-1.425,-1.4255,-1.4261,-1.4337,-1.4304,-1.438,-1.4385,-1.4339,-1.4386,-1.4387,-1.4439,-1.4447,-1.4465,-1.451,-1.4514,-1.4508,-1.451,-1.4511,-1.4512,0,0,0,0,0,0,0,-1.4135,-1.4147,-1.4251,-1.4251,-1.4258,-1.4275,-1.4287,-1.4319,-1.4384,-1.4343,-1.4348,-1.436,-1.4442,-1.4461,-1.4468,-1.4516,-1.4507,-1.4511,-1.4513,-1.4514,-1.4574,-1.4573,0,0,0,0,0,0,-1.4122,-1.4142,-1.4248,-1.4254,-1.4202,-1.4277,-1.429,-1.4312,-1.4384,-1.4395,-1.4359,-1.4362,-1.4455,-1.4464,-1.4472,-1.4487,-1.4511,-1.4515,-1.4517,-1.4574,-1.4574,-1.4573,0,0,0,0,0,0,-1.4119,-1.4131,-1.4243,-1.4199,-1.4215,-1.4278,-1.4303,-1.4314,-1.4333,-1.4396,-1.4408,-1.4366,-1.4456,-1.4467,-1.4497,-1.4491,-1.4516,-1.4519,-1.4575,-1.4574,-1.4573,-1.4516,0,0,0,0,0,0,-1.4115,-1.413,-1.4134,-1.4199,-1.4217,-1.4266,-1.4302,-1.4316,-1.4339,-1.4345,-1.4406,-1.4417,-1.4457,-1.4491,-1.45,-1.4497,-1.4522,-1.4576,-1.4574,-1.4573,-1.4519,-1.4514,-1.4509,0,0,0,0,0,-1.4109,-1.4113,-1.4134,-1.4146,-1.4224,-1.4266,-1.4276,-1.4323,-1.4339,-1.4343,-1.4384,-1.4415,-1.4491,-1.4493,-1.4504,-1.4502,-1.4576,-1.4575,-1.4574,-1.4521,-1.4515,-1.4509,0,0,0,0,0,0,-1.4044,-1.4122,-1.4146,-1.4171,-1.4212,-1.4277,-1.4284,-1.4315,-1.4351,-1.4355,-1.4411,-1.4424,-1.4448,-1.4478,-1.448,-1.4514,-1.4537,-1.4538,-1.4493,-1.4488,-1.4483,-1.4474,-1.4525,0,0,0,0,0,-1.4033,-1.4062,-1.4128,-1.4144,-1.4163,-1.422,-1.424,-1.4273,-1.4317,-1.4334,-1.4377,-1.4418,-1.4451,-1.4471,-1.4505,-1.4524,-1.4538,-1.4528,-1.4523,-1.4519,-1.4518,-1.453,-1.4526,-1.4569,-1.4569,-1.4569,0,0,-1.401,-1.4056,-1.407,-1.4132,-1.4167,-1.4195,-1.4234,-1.4261,-1.4282,-1.4338,-1.4369,-1.4402,-1.4451,-1.4475,-1.4488,-1.4501,-1.451,-1.4517,-1.4513,-1.4515,-1.4529,-1.4524,-1.4521,-1.4568,-1.4568,-1.4568,0,0,-1.3981,-1.402,-1.4037,-1.4072,-1.4125,-1.4163,-1.4167,-1.4229,-1.4253,-1.4285,-1.4328,-1.4353,-1.4409,-1.4442,-1.4467,-1.4452,-1.4482,-1.4462,-1.4435,-1.4446,-1.4443,-1.444,-1.4434,-1.4432,-1.4461,-1.4461,-1.4461,0,-1.3945,-1.3989,-1.4041,-1.4067,-1.4092,-1.4146,-1.4163,-1.4194,-1.4255,-1.4271,-1.4286,-1.4357,-1.4394,-1.4427,-1.4423,-1.4442,-1.4447,-1.4454,-1.444,-1.4437,-1.4436,-1.443,-1.4428,-1.4458,-1.4459,-1.4459,-1.4459,0,-1.3942,-1.3972,-1.3979,-1.4038,-1.4065,-1.4086,-1.4141,-1.4162,-1.4193,-1.4229,-1.4261,-1.4308,-1.4352,-1.4362,-1.4392,-1.4399,-1.4406,-1.4429,-1.4453,-1.4428,-1.4424,-1.4422,-1.4454,-1.4455,-1.4456,-1.4457,0,0,-1.3874,-1.3962,-1.3964,-1.3991,-1.4055,-1.4078,-1.4102,-1.4147,-1.4163,-1.4204,-1.4225,-1.4271,-1.4294,-1.4321,-1.4356,-1.4366,-1.435,-1.4388,-1.439,-1.4378,-1.436,-1.4341,-1.4338,-1.4371,-1.4371,-1.4371,-1.4356,0,-1.3854,-1.39,-1.3948,-1.3976,-1.4004,-1.4056,-1.4077,-1.4118,-1.4153,-1.4181,-1.422,-1.4252,-1.428,-1.4296,-1.4309,-1.4349,-1.4347,-1.4352,-1.439,-1.4391,-1.4375,-1.4337,-1.4316,-1.43,-1.4355,-1.4355,-1.4354,0,-1.3836,-1.3875,-1.3907,-1.3968,-1.3982,-1.4,-1.4044,-1.4071,-1.4119,-1.4144,-1.4175,-1.4212,-1.424,-1.4261,-1.4299,-1.4301,-1.432,-1.4343,-1.4343,-1.4347,-1.437,-1.4338,-1.4296,-1.4292,-1.4353,-1.4353,-1.4353,0,-1.3782,-1.3843,-1.387,-1.3892,-1.3964,-1.3975,-1.4006,-1.4054,-1.4078,-1.4117,-1.4133,-1.4174,-1.4197,-1.4228,-1.4275,-1.4287,-1.4308,-1.4334,-1.4328,-1.4327,-1.4329,-1.4328,-1.4287,-1.4343,-1.4343,-1.4343,-1.4343,0,-1.3753,-1.377,-1.3846,-1.3862,-1.3883,-1.3939,-1.3957,-1.3992,-1.4035,-1.4059,-1.4107,-1.4127,-1.419,-1.4218,-1.4255,-1.4281,-1.4291,-1.4311,-1.432,-1.4306,-1.4303,-1.4318,-1.4319,-1.4343,-1.4343,-1.4343,-1.4343,0,-1.3695,-1.3747,-1.3779,-1.3846,-1.3863,-1.3875,-1.3932,-1.395,-1.3988,-1.4018,-1.4028,-1.4088,-1.4124,-1.4175,-1.4226,-1.4251,-1.4271,-1.4287,-1.4255,-1.426,-1.4252,-1.4251,-1.4218,-1.4216,-1.4274,-1.4273,-1.4273,0,-1.3673,-1.3687,-1.3756,-1.3776,-1.3805,-1.3836,-1.3861,-1.3917,-1.394,-1.3996,-1.4007,-1.4047,-1.4082,-1.4137,-1.4184,-1.4224,-1.424,-1.4226,-1.4247,-1.4232,-1.4239,-1.4237,-1.4238,-1.422,-1.4219,-1.4219,-1.4218,0,-1.3628,-1.3653,-1.3687,-1.3731,-1.3759,-1.3796,-1.3835,-1.3848,-1.3912,-1.3936,-1.3974,-1.4001,-1.4055,-1.4093,-1.414,-1.4171,-1.4204,-1.4212,-1.4213,-1.4197,-1.4177,-1.4187,-1.424,-1.4212,-1.4212,-1.4213,-1.4213,-1.4213,-1.3586,-1.3601,-1.3652,-1.3689,-1.3724,-1.376,-1.378,-1.3822,-1.3854,-1.3902,-1.3934,-1.397,-1.4018,-1.4083,-1.4113,-1.4142,-1.4156,-1.4157,-1.4157,-1.4156,-1.415,-1.4174,-1.4151,-1.4151,-1.4151,-1.4151,-1.4152,0,-1.3542,-1.3578,-1.3611,-1.3665,-1.3694,-1.3725,-1.377,-1.3792,-1.3823,-1.3866,-1.3899,-1.3943,-1.3981,-1.4033,-1.4075,-1.4088,-1.4104,-1.4097,-1.4095,-1.4102,-1.4136,-1.4131,-1.4082,-1.4082,-1.4082,-1.4082,-1.4082,-1.4083,-1.3522,-1.355,-1.3581,-1.3627,-1.3662,-1.3699,-1.3722,-1.3755,-1.3789,-1.3835,-1.3868,-1.3902,-1.3948,-1.3994,-1.403,-1.4044,-1.4057,-1.4044,-1.4063,-1.4093,-1.4099,-1.4105,-1.4101,-1.4047,-1.4047,-1.4026,-1.4026,-1.4026]}]]